Weather History for Durango, CO

Change the Weather History Date:

Sunday, December 16, 2012

  Actual Average Record
Temperature  
Mean Temperature 16 °F 26 °F  
Max Temperature 26 °F 39 °F 54 °F (1980)
Min Temperature 5 °F 13 °F -6 °F (2001)
Degree Days  
Heating Degree Days 49 39  
Month to date heating degree days 561 594  
Since 1 July heating degree days 2010 2267  
Cooling Degree Days 0 0  
Month to date cooling degree days 0 0  
Year to date cooling degree days 477 243  
Moisture  
Dew Point 18 °F    
Average Humidity 91    
Maximum Humidity 100    
Minimum Humidity 81    
Precipitation  
Precipitation T in 0.03 in 0.24 in (2010)
Month to date precipitation 0.72 0.52  
Year to date precipitation 7.63 15.42  
Sea Level Pressure  
Sea Level Pressure 30.00 in    
Wind  
Wind Speed 6 mph (WSW)    
Max Wind Speed 23 mph    
Max Gust Speed 28 mph    
Visibility 8 miles    
Events Snow    
T = Trace of Precipitation, MM = Missing Value Source: NWS Daily Summary

Daily Weather History Graph

Daily Weather History Graph

Search for Another Location

Airport:

Trip Planner

Search our weather history database for the weather conditions in past years. The results will help you decide how hot, cold, wet, or windy it might be!

Date:

Astronomy

Dec. 16, 2012 Rise Set
Actual Time 7:18 AM MST 4:55 PM MST
Civil Twilight 6:49 AM MST 5:24 PM MST
Nautical Twilight 6:16 AM MST 5:57 PM MST
Astronomical Twilight 5:45 AM MST 6:28 PM MST
Moon 9:57 AM MST (12/16) 9:08 PM MST (12/16)
Length of Visible Light 10h 35m
Length of Day
9h 37m
Waxing Crescent, 16% of the Moon is Illuminated
Dec 16
Waxing Crescent
Dec 19
First Quarter
Dec 28
Full
Jan 4
Last Quarter
Jan 11
New

Hourly Weather History & Observations

Time (MST) Temp. Windchill Dew Point Humidity Pressure Visibility Wind Dir Wind Speed Gust Speed Precip Events Conditions
12:25 AM 26.6 °F 13.1 °F 24.8 °F 93% 29.81 in 10.0 mi WSW 19.6 mph 25.3 mph 0.00 in   Mostly Cloudy
12:53 AM 25.0 °F 10.2 °F 23.0 °F 92% 29.90 in 9.0 mi WSW 21.9 mph 26.5 mph 0.00 in   Mostly Cloudy
1:01 AM 24.8 °F 10.3 °F 21.2 °F 86% 29.82 in 10.0 mi WSW 20.7 mph - N/A   Scattered Clouds
1:53 AM 23.0 °F 10.6 °F 21.0 °F 92% 29.92 in 10.0 mi WSW 13.8 mph - N/A   Clear
3:53 AM 19.9 °F - 18.0 °F 92% 29.97 in 10.0 mi Calm Calm - N/A   Clear
4:43 AM 15.8 °F - 14.0 °F 93% 29.87 in 10.0 mi Calm Calm - N/A   Mostly Cloudy
4:53 AM 16.0 °F - 14.0 °F 92% 30.01 in 10.0 mi Calm Calm - N/A   Overcast
5:19 AM 17.6 °F - 15.8 °F 93% 29.88 in 10.0 mi Calm Calm - N/A   Overcast
5:44 AM 8.6 °F - 8.6 °F 100% 29.88 in 10.0 mi Calm Calm - N/A   Scattered Clouds
5:53 AM 9.0 °F - 8.1 °F 96% 30.06 in 10.0 mi Calm Calm - N/A   Mostly Cloudy
6:49 AM 15.8 °F 10.2 °F 15.8 °F 100% 29.90 in 10.0 mi ENE 3.5 mph - N/A   Overcast
6:53 AM 16.0 °F - 15.1 °F 96% 30.04 in 10.0 mi Calm Calm - N/A   Overcast
7:05 AM 17.6 °F 12.3 °F 15.8 °F 93% 29.91 in 10.0 mi NE 3.5 mph - N/A   Overcast
7:53 AM 18.0 °F - 17.1 °F 96% 30.04 in 4.0 mi Calm Calm - 0.00 in Snow Light Snow
8:53 AM 19.9 °F - 18.0 °F 92% 30.06 in 7.0 mi Calm Calm - 0.00 in Snow Light Snow
9:32 AM 21.2 °F - 19.4 °F 93% 29.95 in 2.5 mi Calm Calm - 0.00 in Snow Light Snow
9:41 AM 21.2 °F - 19.4 °F 93% 29.95 in 3.0 mi Calm Calm - 0.00 in Snow Light Snow
9:53 AM 21.9 °F - 19.9 °F 92% 30.07 in 4.0 mi Calm Calm - 0.00 in Snow Light Snow
9:58 AM 21.2 °F - 19.4 °F 93% 29.95 in 1.8 mi Calm Calm - 0.00 in Snow Light Snow
10:07 AM 21.2 °F - 21.2 °F 100% 29.95 in 1.2 mi Calm Calm - 0.00 in Snow Light Snow
10:22 AM 23.0 °F - 21.2 °F 93% 29.95 in 2.0 mi Calm Calm - 0.00 in Snow Light Snow
10:30 AM 21.2 °F - 21.2 °F 100% 29.95 in 3.0 mi Calm Calm - 0.00 in Snow Light Snow
10:53 AM 24.1 °F 19.7 °F 21.9 °F 91% 30.05 in 2.0 mi SW 3.5 mph - 0.00 in Snow Light Snow
11:01 AM 23.0 °F 18.4 °F 21.2 °F 93% 29.94 in 1.8 mi SW 3.5 mph - 0.00 in Snow Light Snow
11:07 AM 23.0 °F 17.0 °F 21.2 °F 93% 29.94 in 3.0 mi SW 4.6 mph - 0.00 in Snow Light Snow
11:14 AM 24.8 °F 19.1 °F 21.2 °F 86% 29.93 in 4.0 mi SW 4.6 mph - 0.00 in Snow Light Snow
11:53 AM 26.1 °F 17.6 °F 21.9 °F 84% 30.03 in 10.0 mi WSW 8.1 mph - 0.00 in   Mostly Cloudy
12:07 PM 26.6 °F 17.5 °F 21.2 °F 80% 29.92 in 10.0 mi WSW 9.2 mph - N/A   Mostly Cloudy
12:14 PM 24.8 °F 16.1 °F 21.2 °F 86% 29.92 in 10.0 mi SW 8.1 mph - N/A   Mostly Cloudy
12:53 PM 25.0 °F 14.2 °F 21.9 °F 88% 30.03 in 10.0 mi SW 11.5 mph - N/A   Overcast
1:22 PM 26.6 °F 15.7 °F 23.0 °F 86% 29.91 in 10.0 mi WSW 12.7 mph - N/A   Overcast
1:40 PM 26.6 °F 15.7 °F 21.2 °F 80% 29.91 in 10.0 mi WSW 12.7 mph - N/A   Overcast
1:53 PM 25.0 °F 14.8 °F 21.9 °F 88% 30.03 in 10.0 mi WSW 10.4 mph - N/A   Mostly Cloudy
2:53 PM 25.0 °F 12.6 °F 19.0 °F 78% 30.03 in 10.0 mi WSW 15.0 mph - N/A   Clear
3:53 PM 25.0 °F 11.7 °F 19.0 °F 78% 30.06 in 10.0 mi WSW 17.3 mph 25.3 mph N/A   Clear
4:53 PM 21.9 °F 10.4 °F 17.1 °F 82% 30.10 in 10.0 mi WSW 11.5 mph - N/A   Clear
5:53 PM 19.9 °F 9.3 °F 16.0 °F 85% 30.16 in 10.0 mi SW 9.2 mph - N/A   Clear
6:53 PM 17.1 °F 10.0 °F 14.0 °F 88% 30.16 in 10.0 mi South 4.6 mph - N/A   Clear
7:53 PM 15.1 °F 9.4 °F 12.9 °F 91% 30.19 in 10.0 mi NNE 3.5 mph - N/A   Scattered Clouds
8:53 PM 10.9 °F 2.9 °F 9.0 °F 92% 30.23 in 10.0 mi ENE 4.6 mph - N/A   Clear
9:53 PM 8.1 °F - 7.0 °F 95% 30.26 in 10.0 mi Calm Calm - N/A   Clear
10:53 PM 12.0 °F - 10.0 °F 92% 30.25 in 10.0 mi Calm Calm - N/A   Clear
11:53 PM 7.0 °F - 5.0 °F 92% 30.26 in 9.0 mi Calm Calm - N/A   Scattered Clouds